Regional Weather Roundup
Issued by NWS State College, PA

Home | Current Version | Previous Version | Graphics & Text | Print | Product List | Glossary Off
Versions: 1 2 3 4 5 6 7 8 9 10 11 12 13 14 15 16 17 18 19 20 21 22 23 24 25 26 27 28 29 30 31 32 33 34 35 36 37 38 39 40 41 42 43 44 45 46 47 48 49 50

428
ASUS41 KCTP 030003
RWRCTP

REGIONAL WEATHER ROUNDUP
NATIONAL WEATHER SERVICE STATE COLLEGE PA
700 PM EST FRI DEC 02 2016

Note: "fair" indicates few or no clouds below 12,000 feet with no
significant weather and/or obstructions to visibility.

* = STATION THAT DOES NOT REPORT PRECIPITATION /E.G. RAIN...SNOW...ETC/
    THUNDER OR FOG.

PAZ002>004-007>009-013>016-020>023-029>032-030100-
WESTERN PENNSYLVANIA

CITY           SKY/WX    TMP DP  RH WIND       PRES   REMARKS
ERIE           CLOUDY    41  31  67 W16G28    30.06R
MEADVILLE      CLOUDY    34  32  92 W8        30.05S
FRANKLIN*        N/A     34  28  80 W13G18    30.07R
NEW CASTLE     CLOUDY    36  33  89 W9        30.11R
BEAVER COUNTY  DRIZZLE   36  32  87 MISG      30.11R
BUTLER*        CLOUDY    34  30  86 SW9       30.11R
PITTSBURGH INT CLOUDY    38  31  76 W13G24    30.10R
PITTSBURGH     CLOUDY    36  28  73 SW16      30.10S
INDIANA*       CLOUDY    36  32  87 W15       30.09R
LATROBE        CLOUDY    36  32  87 SW17      30.11S
WASHINGTON CO* CLOUDY    36  28  75 SW9G16    30.14S
$$

PAZ004>006-010>012-017>019-024>028-033>037-041-042-045-046-049>053-030100-
CENTRAL PENNSYLVANIA

CITY           SKY/WX    TMP DP  RH WIND       PRES   REMARKS
BRADFORD       LGT SNOW  33  31  92 W13G22    29.95R FOG
DUBOIS         LGT SNOW  34  30  85 W12G21    30.00R FOG
CLEARFIELD     FLURRIES  36  31  82 W14G20    30.00S
JOHNSTOWN      CLOUDY    32  28  85 W20G28    30.01R
ALTOONA        CLOUDY    38  29  70 W17       30.03S
STATE COLLEGE  LGT SNOW  37  32  81 SW14G26   30.00R
WILLIAMSPORT   LGT RAIN  39  34  82 W12G22    29.97R
SELINSGROVE    CLOUDY    42  31  64 W6        30.00R
FT INDIANTOWN  CLOUDY    42  28  57 W14       29.98S
CAPITAL CITY   CLOUDY    43  28  55 W8        30.02S
HARRISBURG     CLOUDY    43  30  60 W10       30.01S
YORK           CLOUDY    41  29  62 W12       30.03S
$$

PAZ038>040-043-044-047-048-054-055-060>062-067>071-030100-
EASTERN PENNSYLVANIA

CITY           SKY/WX    TMP DP  RH WIND       PRES   REMARKS
SCRANTON       CLOUDY    41  30  65 W12       29.91R
MOUNT POCONO   CLOUDY    36  27  69 W15G24    29.86R
ALLENTOWN      CLOUDY    44  27  51 W14G28    29.95R
QUAKERTOWN*    CLOUDY    41  28  60 W9        29.96S
READING        CLOUDY    43  27  53 W12G22    29.98R
LANCASTER      CLOUDY    42  31  64 W15       30.00S
COATESVILLE    CLOUDY    41  28  60 W10G20    30.01R
POTTSTOWN      CLOUDY    42  27  55 W8G17     29.99S
BLUE BELL      CLOUDY    41  28  60 W9        29.97R
DOYLESTOWN     CLOUDY    45  28  51 W9G20     29.95R
WILLOW GROVE   NOT AVBL
NORTH PHILA    CLOUDY    45  28  51 W15G22    29.99R
PHILADELPHIA   MOCLDY    45  27  49 W20G26    30.01R
$$




USA.gov is the U.S. government's official web portal to all federal, state and local government web resources and services.